SCP
0 0 0 0 0 -0 0 0 0 0 0 0 0 0 0 0 0 0 0 0 0 0 0 0 0 0 0 0 -0 0 0 0 0 0 0 0 0 0 0 0 0 0 0 0
0 0 0 0 0 -0 -0 0 0 0 0 0 0 0 0 0 0 0 0 -0 0 0 0 0 0 0 -0 -0 -0 0 0 0 0 0 0 0 0 0 0 0 0 0 0 0
0 0 0 0 0 0 0 0 0 0 0 0 0 0 0 0 0 0 0 0 0 0 0 0 0 -0 -0 -0 0 0 0 0 0 0 0 0 0 0 0 0 0 0 0 0
0 0 0 0 0 0 0 0 0 0 0 0 0 0 0 0 0 0 0 0 0 0 0 0 0 -0 -0 -0 0 0 0 0 0 0 0 0 0 0 0 0 0 0 0 0
0 0 0 -0 0 0 0 0 0 0 0 0 0 0 0 0 0 0 0 0 0 0 0 0 0 -0 -0 -0 0 0 0 0 0 0 0 0 0 0 0 0 0 0 0 0
0 0 0 0 0 0 0 0 0 0 0 0 0 0 0 0 0 0 0 0 0 0 0 0 -0 -0 0 -0 0 0 0 0 0 0 0 0 0 0 0 0 0 0 0 0
0 0 0 0 0 0 0 0 0 0 0 0 0 0 -0 0 0 0 0 0 0 0 0 0 0 -0 0 0 0 0 0 0 0 0 0 0 0 0 0 0 0 0 0 0
0 0 0 0 0 0 0 0 0 0 0 0 0 0 -0 0 0 0 0 0 0 0 0 0 0 0 0 0 0 0 0 0 0 0 0 0 0 0 0 0 0 0 0 0
0 0 0 0 0 0 0 0 0 0 0 0 0 0 0 0 0 0 0 0 0 0 0 0 0 0 0 0 0 0 0 0 0 0 0 0 0 0 0 0 0 0 0 0
0 0 0 0 0 0 0 0 0 0 0 0 0 0 0 0 0 0 0 0 0 0 0 0 0 0 0 0 0 0 0 0 0 0 0 0 0 0 0 0 0 0 0 0
0 0 0 0 0 0 0 0 0 0 0 0 -0 0 0 0 0 0 0 0 0 0 0 0 0 0 0 0 0 0 0 0 0 0 0 0 0 0 0 0 0 0 0 0
0 0 0 0 0 0 0 0 0 0 0 -0 -0 -0 0 0 0 0 0 0 0 0 0 0 -0 -0 -0 0 -0 0 0 0 0 0 0 0 0 0 0 0 0 0 0 0
0 0 0 0 0 0 0 0 0 0 0 0 -0 -0 0 -0 -0 -0 -0 0 0 0 -0 -0 -0 -0 -0 -0 -0 -0 0 0 0 0 0 0 0 0 0 0 0 0 0 0
0 0 0 0 0 0 0 0 0 0 0 -0 0 -0 -0 -0 -0 -0 -0 -0 -0 -0 -0 -0 -0 -0 -0 -0 -0 -0 -0 -0 -0 0 0 0 -0 -0 -0 -0 -0 -0 0 0
0 0 0 0 0 0 0 0 0 0 0 0 0 -0 -0 -0 -0 -0 -0 -0 -0 -0 -0 -0 -0 -0 -0 -0 -0 -0 -0 -0 0 0 -0 -0 -0 -0 -0 -0 0 0 0 0
0 0 0 0 0 0 0 0 0 0 0 0 -0 -0 -0 -0 -0 -0 -0 -0 -0 -0 -0 -0 -0 -0 -0 -0 -0 -0 -0 -0 -0 -0 -0 -0 -0 -0 0 0 0 0 0 0
0 0 0 0 0 0 0 0 0 0 0 0 -0 -0 -0 -0 -0 -0 -0 -0 -0 -0 -0 -0 -0 -0 -0 -0 0 -0 -0 -0 0 0 -0 -0 -0 -0 -0 -0 -0 -0 -0 0
0 0 0 0 0 0 0 0 0 0 0 0 -0 -0 -0 -0 -0 -0 -0 -0 -0 -0 -0 -0 -0 -0 0 0 0 -0 0 0 0 -0 -0 -0 -0 -0 -0 -0 -0 -0 -0 0
0 0 0 0 0 0 0 0 0 0 0 0 0 -0 -0 -0 -0 -0 0 0 -0 -0 0 0 0 0 0 0 -0 -0 -0 0 -0 -0 -0 -0 -0 -0 -0 -0 0 0 -0 -0
0 0 0 0 0 0 0 0 -0 -0 0 -0 -0 -0 -0 -0 -0 -0 -0 -0 0 0 0 0 0 0 0 -0 -0 -0 -0 -0 -0 -0 -0 -0 -0 0 0 0 0 -0 -0 0
0 0 0 0 0 0 0 0 0 0 0 -0 -0 -0 -0 -0 0 0 0 0 0 0 0 0 0 -0 -0 -0 -0 -0 -0 -0 -0 -0 -0 -0 0 0 0 0 0 0 0 0
0 0 0 0 0 0 0 0 -0 0 0 -0 0 -0 -0 -0 -0 -0 0 0 0 0 0 0 -0 0 -0 -0 -0 -0 -0 -0 -0 -0 0 0 0 0 0 0 0 0 0 0
0 0 0 0 0 0 0 0 0 0 0 0 0 0 -0 -0 0 0 0 0 0 0 -0 0 0 0 -0 0 0 0 0 0 0 0 0 0 0 0 0 0 0 0 0 0
-0 -0 0 0 0 0 0 0 0 0 0 0 0 0 -0 0 0 0 -0 -0 -0 -0 -0 0 0 -0 -0 -0 0 0 0 0 0 0 0 0 0 0 0 0 0 0 0 0
-0 -0 -0 0 0 0 0 0 0 0 0 0 0 0 0 0 0 0 0 0 -0 -0 -0 -0 -0 -0 0 0 0 0 0 0 0 0 0 0 0 0 0 0 0 0 0 0
-0 -0 0 0 0 0 0 0 0 0 0 0 0 -0 -0 0 0 0 0 0 0 -0 -0 0 -0 0 0 0 0 0 0 0 0 0 0 0 0 0 0 0 0 0 0 0
-0 0 0 0 0 0 0 0 0 0 0 0 0 -0 -0 -0 -0 0 0 0 -0 -0 -0 0 0 0 0 0 0 0 0 0 0 0 0 0 0 0 0 0 0 0 0 0
Wind_Speed_500mb
33 38 40 45 45 46 43 44 42 56 62 54 52 45 50 53 63 64 46 31 33 40 45 51 56 58 58 55 52 44 35 20 9 11 14 18 18 20 23 24 27 30 29 29
36 36 32 41 41 46 42 42 45 49 55 46 58 61 48 58 50 32 34 41 34 40 46 51 54 58 56 55 56 40 19 7 11 15 16 22 24 26 24 24 27 27 33 33
12 22 40 30 21 20 29 33 39 45 47 48 43 43 44 50 51 27 27 36 40 43 45 50 51 52 49 46 39 25 2 7 9 12 22 27 29 30 33 31 28 32 35 33
20 27 9 10 28 42 45 43 41 48 49 40 53 59 56 60 6 8 27 37 38 40 43 44 45 42 38 40 27 15 6 7 14 17 24 27 27 29 31 32 31 29 33 37
8 17 40 42 8 33 41 51 46 50 50 57 56 49 26 9 9 21 34 42 43 37 35 35 38 32 36 31 21 8 12 20 24 24 27 27 29 30 29 28 31 39 38 37
14 19 16 22 44 55 43 41 42 56 58 60 76 34 24 17 18 33 39 40 45 35 29 32 30 36 32 22 13 20 25 28 27 28 30 34 34 34 34 39 39 38 35 40
22 20 23 37 34 65 22 39 81 87 83 75 40 57 86 87 68 54 50 45 38 23 20 26 23 28 20 11 19 23 25 28 30 32 34 33 32 35 34 32 32 35 32 33
17 18 22 35 74 43 56 77 82 82 85 83 80 83 78 79 69 56 45 35 18 14 19 21 22 17 9 18 21 21 25 28 31 32 35 33 36 37 36 31 32 30 29 29
14 22 70 77 71 84 78 87 94 89 82 76 70 70 68 56 53 45 30 16 14 10 19 15 13 10 21 26 21 24 27 32 36 34 35 33 35 34 34 33 33 31 31 33
26 20 53 69 85 77 82 88 91 92 90 75 67 65 42 38 41 33 10 14 12 17 13 16 17 21 26 26 24 25 35 34 31 38 37 38 43 45 41 35 35 33 33 33
33 49 71 53 73 80 91 89 96 83 73 44 45 35 44 28 28 14 22 18 13 14 20 29 29 32 30 26 25 33 32 32 35 37 41 47 52 50 52 52 48 45 40 34
21 56 46 73 78 78 87 104 70 68 39 27 24 20 20 14 13 25 18 15 19 26 34 37 37 35 29 27 28 28 28 28 31 30 29 30 31 37 45 45 46 45 42 40
26 46 49 58 57 64 84 79 55 47 26 28 25 9 11 17 31 16 18 24 32 39 40 39 36 34 32 28 27 30 32 30 31 30 29 29 27 26 29 39 42 42 43 43
29 38 36 37 58 66 57 58 40 32 23 18 20 20 28 25 24 29 34 38 41 42 41 39 38 39 30 31 35 37 38 35 31 31 30 30 30 28 26 25 26 31 42 44
32 28 28 39 41 45 45 43 44 44 32 32 31 30 26 37 41 46 45 45 45 45 45 44 40 37 34 34 35 35 32 33 31 32 34 30 27 27 26 29 31 34 42 49
39 27 27 32 36 35 37 34 34 38 36 37 41 41 45 50 53 52 47 44 44 49 44 40 42 39 34 34 35 36 36 36 33 32 31 30 29 30 33 33 33 34 38 54
26 25 33 30 29 28 29 25 26 35 39 41 43 44 46 52 54 51 49 48 49 46 42 43 43 39 34 32 31 31 33 34 34 33 32 30 31 33 32 30 33 35 37 50
14 14 17 19 19 21 22 22 25 31 40 42 42 45 50 51 55 53 50 47 47 49 47 43 39 36 34 33 32 33 33 34 34 34 34 35 33 30 31 33 35 37 41 47
12 11 13 16 14 14 17 22 24 30 35 39 45 52 52 51 52 53 49 50 51 50 43 39 35 34 34 33 33 33 33 33 32 32 33 31 29 30 36 39 41 44 44 45
12 14 15 17 19 21 25 26 25 31 39 44 48 50 52 48 47 47 47 51 43 40 36 35 33 34 34 33 32 33 33 33 31 33 31 30 32 38 40 44 43 41 43 46
18 19 21 24 26 26 29 31 35 38 37 38 44 49 51 47 44 39 40 44 37 35 33 32 30 30 30 30 31 31 31 32 32 33 33 36 39 43 42 41 42 48 48 48
19 21 24 25 28 31 31 32 33 34 33 35 40 41 40 40 37 40 38 36 33 30 30 32 33 31 29 30 31 34 36 36 36 36 38 40 41 42 44 44 46 48 52 53
18 20 23 25 26 31 31 30 30 32 40 40 36 32 29 28 26 30 36 32 32 31 32 34 32 28 27 30 33 36 37 35 35 37 37 38 39 41 43 47 50 52 56 58
21 21 23 24 26 25 26 24 24 28 28 28 29 30 27 29 32 33 33 33 32 30 32 33 28 23 26 30 32 32 32 32 31 31 33 37 39 41 44 48 50 52 54 57
23 24 23 23 23 22 25 26 27 25 25 25 25 24 25 28 31 36 34 32 29 28 27 29 25 23 26 28 27 27 27 27 27 28 33 38 40 42 43 45 48 51 53 56
25 22 22 21 21 23 25 24 23 24 23 24 23 24 26 30 33 34 33 31 27 23 24 26 23 21 20 20 21 21 22 23 23 29 35 36 38 39 40 43 47 50 52 54
23 26 24 24 23 24 23 23 25 25 24 25 27 29 31 32 31 30 28 27 24 23 21 20 18 17 16 15 16 17 18 20 23 29 33 34 35 36 39 42 45 47 49 52
Wind_Direction_500mb
291 298 294 290 291 286 281 279 276 286 287 292 295 317 325 306 306 322 308 325 325 330 336 334 340 345 347 345 347 336 328 326 23 61 85 101 119 117 118 106 90 85 94 93
292 288 296 298 290 288 283 275 272 281 287 298 311 302 312 308 309 317 330 294 328 339 342 338 342 344 344 344 343 341 344 51 107 131 127 101 98 96 87 76 72 68 73 80
284 330 316 295 283 305 298 290 291 288 294 294 293 299 302 292 305 359 308 319 337 335 335 340 343 343 344 341 335 330 330 137 133 114 110 106 103 96 91 81 71 63 57 55
292 312 263 272 316 307 294 286 277 280 287 293 291 297 302 295 353 327 314 332 338 329 336 339 339 342 347 346 334 332 342 100 117 120 109 98 85 77 75 78 73 70 67 59
266 290 288 283 344 340 318 305 305 296 294 292 291 294 303 38 34 329 331 332 324 325 338 340 339 348 348 345 345 10 92 107 105 100 96 97 92 91 86 83 72 62 60 54
262 286 278 312 323 317 318 288 303 339 329 331 329 307 299 232 272 290 310 320 320 330 348 344 345 345 346 360 48 86 100 104 104 100 96 91 89 81 73 70 70 69 62 56
253 257 263 282 339 330 300 306 326 311 304 302 294 290 303 315 309 304 310 315 321 348 18 340 343 347 358 69 92 99 103 99 97 95 93 90 86 80 86 79 76 70 66 60
285 288 280 335 327 320 314 310 308 303 297 292 283 272 282 291 303 305 303 309 320 22 329 346 346 352 68 100 106 108 104 96 89 83 72 68 69 69 68 67 69 66 62 54
290 278 302 305 310 317 321 318 314 310 304 296 305 284 264 285 295 296 301 334 71 338 339 15 25 82 107 108 110 108 100 86 74 73 74 69 68 64 66 61 64 58 55 47
308 284 303 316 316 320 320 316 312 307 302 292 285 283 278 261 280 287 331 79 33 6 54 72 91 107 108 113 108 99 87 81 82 80 70 65 65 69 69 63 56 51 43 39
288 297 325 307 315 320 318 317 313 321 313 289 283 296 290 248 289 308 96 74 48 68 102 108 112 109 107 100 91 84 80 76 72 70 68 68 69 65 59 55 51 49 46 33
301 315 313 304 318 324 325 323 330 338 341 340 311 269 280 230 270 113 81 71 94 113 119 117 116 108 96 83 79 83 79 77 73 70 65 58 48 42 49 47 42 40 37 33
321 308 306 306 319 332 334 334 337 347 331 339 352 319 102 130 115 80 103 113 122 124 121 118 110 99 92 88 89 87 82 77 74 72 67 61 56 52 36 19 16 24 27 26
324 327 320 331 325 337 341 355 1 3 0 353 3 112 125 113 110 111 113 122 125 121 114 108 104 94 91 92 87 84 82 82 71 66 62 57 52 45 40 33 24 18 17 23
327 327 308 315 334 349 358 12 32 48 63 91 112 116 118 113 108 110 119 122 119 112 105 102 97 90 90 91 88 83 76 72 68 66 62 57 49 44 40 35 28 21 16 24
326 337 339 347 347 358 8 22 47 61 72 77 90 98 104 106 107 108 110 115 110 101 99 100 94 87 81 81 81 79 77 75 69 62 57 51 46 42 38 33 28 22 17 17
336 347 348 351 351 7 24 31 58 82 89 92 99 108 113 117 116 113 108 107 104 101 101 100 97 95 88 83 80 76 71 68 69 64 57 50 45 42 36 32 28 24 20 15
342 341 358 359 7 28 41 51 72 89 98 109 114 118 117 115 111 109 106 105 105 102 97 96 93 90 87 82 80 76 72 70 65 60 57 55 47 42 37 32 28 24 20 18
16 21 30 37 49 64 72 77 82 100 109 115 117 112 110 109 109 107 110 107 100 96 88 89 90 89 87 85 79 78 78 74 69 65 59 50 46 41 40 36 31 28 22 16
62 68 72 80 88 86 88 91 97 106 115 119 118 118 115 115 118 118 117 104 95 94 93 91 89 86 83 83 84 80 76 75 75 63 61 52 49 44 41 39 33 25 22 20
89 91 96 95 89 89 96 106 113 111 112 118 119 117 114 111 106 102 104 100 97 100 102 100 94 88 86 83 82 85 84 73 67 61 58 53 49 47 41 35 30 30 25 22
111 110 105 103 104 105 110 115 121 124 124 122 121 121 122 120 124 120 111 104 111 111 109 102 95 94 94 92 90 84 78 72 67 63 59 55 50 46 39 38 35 30 28 25
130 124 120 118 116 118 121 122 123 123 121 117 114 110 107 105 107 113 113 116 119 116 110 102 96 94 95 92 85 78 74 71 66 60 57 55 49 45 41 38 36 32 30 26
149 141 134 131 126 122 122 124 128 135 133 134 135 134 135 136 132 128 124 124 122 119 111 102 100 101 95 87 83 78 73 67 63 60 59 55 49 44 40 38 36 33 30 27
163 152 147 148 145 140 136 134 132 131 127 127 124 120 127 136 142 137 134 132 129 123 119 112 106 97 88 83 80 77 72 67 63 62 59 53 47 43 40 37 35 33 30 27
163 162 160 160 159 154 152 147 148 148 149 147 149 151 150 150 147 146 144 138 136 137 129 116 107 98 92 87 81 76 73 68 65 62 57 51 46 40 37 37 36 33 29 27
171 170 163 160 163 163 163 166 162 161 159 164 160 158 159 158 156 153 151 150 149 146 132 122 121 112 101 92 85 77 71 67 61 60 55 48 42 37 36 36 34 32 29 27
Wind_Speed_850mb
33 38 40 45 45 46 43 44 42 56 62 54 52 45 50 53 63 64 46 31 33 40 45 51 56 58 58 55 52 44 35 20 9 11 14 18 18 20 23 24 27 30 29 29
36 36 32 41 41 46 42 42 45 49 55 46 58 61 48 58 50 32 34 41 34 40 46 51 54 58 56 55 56 40 19 7 11 15 16 22 24 26 24 24 27 27 33 33
12 22 40 30 21 20 29 33 39 45 47 48 43 43 44 50 51 27 27 36 40 43 45 50 51 52 49 46 39 25 2 7 9 12 22 27 29 30 33 31 28 32 35 33
20 27 9 10 28 42 45 43 41 48 49 40 53 59 56 60 6 8 27 37 38 40 43 44 45 42 38 40 27 15 6 7 14 17 24 27 27 29 31 32 31 29 33 37
8 17 40 42 8 33 41 51 46 50 50 57 56 49 26 9 9 21 34 42 43 37 35 35 38 32 36 31 21 8 12 20 24 24 27 27 29 30 29 28 31 39 38 37
14 19 16 22 44 55 43 41 42 56 58 60 76 34 24 17 18 33 39 40 45 35 29 32 30 36 32 22 13 20 25 28 27 28 30 34 34 34 34 39 39 38 35 40
22 20 23 37 34 65 22 39 81 87 83 75 40 57 86 87 68 54 50 45 38 23 20 26 23 28 20 11 19 23 25 28 30 32 34 33 32 35 34 32 32 35 32 33
17 18 22 35 74 43 56 77 82 82 85 83 80 83 78 79 69 56 45 35 18 14 19 21 22 17 9 18 21 21 25 28 31 32 35 33 36 37 36 31 32 30 29 29
14 22 70 77 71 84 78 87 94 89 82 76 70 70 68 56 53 45 30 16 14 10 19 15 13 10 21 26 21 24 27 32 36 34 35 33 35 34 34 33 33 31 31 33
26 20 53 69 85 77 82 88 91 92 90 75 67 65 42 38 41 33 10 14 12 17 13 16 17 21 26 26 24 25 35 34 31 38 37 38 43 45 41 35 35 33 33 33
33 49 71 53 73 80 91 89 96 83 73 44 45 35 44 28 28 14 22 18 13 14 20 29 29 32 30 26 25 33 32 32 35 37 41 47 52 50 52 52 48 45 40 34
21 56 46 73 78 78 87 104 70 68 39 27 24 20 20 14 13 25 18 15 19 26 34 37 37 35 29 27 28 28 28 28 31 30 29 30 31 37 45 45 46 45 42 40
26 46 49 58 57 64 84 79 55 47 26 28 25 9 11 17 31 16 18 24 32 39 40 39 36 34 32 28 27 30 32 30 31 30 29 29 27 26 29 39 42 42 43 43
29 38 36 37 58 66 57 58 40 32 23 18 20 20 28 25 24 29 34 38 41 42 41 39 38 39 30 31 35 37 38 35 31 31 30 30 30 28 26 25 26 31 42 44
32 28 28 39 41 45 45 43 44 44 32 32 31 30 26 37 41 46 45 45 45 45 45 44 40 37 34 34 35 35 32 33 31 32 34 30 27 27 26 29 31 34 42 49
39 27 27 32 36 35 37 34 34 38 36 37 41 41 45 50 53 52 47 44 44 49 44 40 42 39 34 34 35 36 36 36 33 32 31 30 29 30 33 33 33 34 38 54
26 25 33 30 29 28 29 25 26 35 39 41 43 44 46 52 54 51 49 48 49 46 42 43 43 39 34 32 31 31 33 34 34 33 32 30 31 33 32 30 33 35 37 50
14 14 17 19 19 21 22 22 25 31 40 42 42 45 50 51 55 53 50 47 47 49 47 43 39 36 34 33 32 33 33 34 34 34 34 35 33 30 31 33 35 37 41 47
12 11 13 16 14 14 17 22 24 30 35 39 45 52 52 51 52 53 49 50 51 50 43 39 35 34 34 33 33 33 33 33 32 32 33 31 29 30 36 39 41 44 44 45
12 14 15 17 19 21 25 26 25 31 39 44 48 50 52 48 47 47 47 51 43 40 36 35 33 34 34 33 32 33 33 33 31 33 31 30 32 38 40 44 43 41 43 46
18 19 21 24 26 26 29 31 35 38 37 38 44 49 51 47 44 39 40 44 37 35 33 32 30 30 30 30 31 31 31 32 32 33 33 36 39 43 42 41 42 48 48 48
19 21 24 25 28 31 31 32 33 34 33 35 40 41 40 40 37 40 38 36 33 30 30 32 33 31 29 30 31 34 36 36 36 36 38 40 41 42 44 44 46 48 52 53
18 20 23 25 26 31 31 30 30 32 40 40 36 32 29 28 26 30 36 32 32 31 32 34 32 28 27 30 33 36 37 35 35 37 37 38 39 41 43 47 50 52 56 58
21 21 23 24 26 25 26 24 24 28 28 28 29 30 27 29 32 33 33 33 32 30 32 33 28 23 26 30 32 32 32 32 31 31 33 37 39 41 44 48 50 52 54 57
23 24 23 23 23 22 25 26 27 25 25 25 25 24 25 28 31 36 34 32 29 28 27 29 25 23 26 28 27 27 27 27 27 28 33 38 40 42 43 45 48 51 53 56
25 22 22 21 21 23 25 24 23 24 23 24 23 24 26 30 33 34 33 31 27 23 24 26 23 21 20 20 21 21 22 23 23 29 35 36 38 39 40 43 47 50 52 54
23 26 24 24 23 24 23 23 25 25 24 25 27 29 31 32 31 30 28 27 24 23 21 20 18 17 16 15 16 17 18 20 23 29 33 34 35 36 39 42 45 47 49 52
Wind_Direction_850mb
291 298 294 290 291 286 281 279 276 286 287 292 295 317 325 306 306 322 308 325 325 330 336 334 340 345 347 345 347 336 328 326 23 61 85 101 119 117 118 106 90 85 94 93
292 288 296 298 290 288 283 275 272 281 287 298 311 302 312 308 309 317 330 294 328 339 342 338 342 344 344 344 343 341 344 51 107 131 127 101 98 96 87 76 72 68 73 80
284 330 316 295 283 305 298 290 291 288 294 294 293 299 302 292 305 359 308 319 337 335 335 340 343 343 344 341 335 330 330 137 133 114 110 106 103 96 91 81 71 63 57 55
292 312 263 272 316 307 294 286 277 280 287 293 291 297 302 295 353 327 314 332 338 329 336 339 339 342 347 346 334 332 342 100 117 120 109 98 85 77 75 78 73 70 67 59
266 290 288 283 344 340 318 305 305 296 294 292 291 294 303 38 34 329 331 332 324 325 338 340 339 348 348 345 345 10 92 107 105 100 96 97 92 91 86 83 72 62 60 54
262 286 278 312 323 317 318 288 303 339 329 331 329 307 299 232 272 290 310 320 320 330 348 344 345 345 346 360 48 86 100 104 104 100 96 91 89 81 73 70 70 69 62 56
253 257 263 282 339 330 300 306 326 311 304 302 294 290 303 315 309 304 310 315 321 348 18 340 343 347 358 69 92 99 103 99 97 95 93 90 86 80 86 79 76 70 66 60
285 288 280 335 327 320 314 310 308 303 297 292 283 272 282 291 303 305 303 309 320 22 329 346 346 352 68 100 106 108 104 96 89 83 72 68 69 69 68 67 69 66 62 54
290 278 302 305 310 317 321 318 314 310 304 296 305 284 264 285 295 296 301 334 71 338 339 15 25 82 107 108 110 108 100 86 74 73 74 69 68 64 66 61 64 58 55 47
308 284 303 316 316 320 320 316 312 307 302 292 285 283 278 261 280 287 331 79 33 6 54 72 91 107 108 113 108 99 87 81 82 80 70 65 65 69 69 63 56 51 43 39
288 297 325 307 315 320 318 317 313 321 313 289 283 296 290 248 289 308 96 74 48 68 102 108 112 109 107 100 91 84 80 76 72 70 68 68 69 65 59 55 51 49 46 33
301 315 313 304 318 324 325 323 330 338 341 340 311 269 280 230 270 113 81 71 94 113 119 117 116 108 96 83 79 83 79 77 73 70 65 58 48 42 49 47 42 40 37 33
321 308 306 306 319 332 334 334 337 347 331 339 352 319 102 130 115 80 103 113 122 124 121 118 110 99 92 88 89 87 82 77 74 72 67 61 56 52 36 19 16 24 27 26
324 327 320 331 325 337 341 355 1 3 0 353 3 112 125 113 110 111 113 122 125 121 114 108 104 94 91 92 87 84 82 82 71 66 62 57 52 45 40 33 24 18 17 23
327 327 308 315 334 349 358 12 32 48 63 91 112 116 118 113 108 110 119 122 119 112 105 102 97 90 90 91 88 83 76 72 68 66 62 57 49 44 40 35 28 21 16 24
326 337 339 347 347 358 8 22 47 61 72 77 90 98 104 106 107 108 110 115 110 101 99 100 94 87 81 81 81 79 77 75 69 62 57 51 46 42 38 33 28 22 17 17
336 347 348 351 351 7 24 31 58 82 89 92 99 108 113 117 116 113 108 107 104 101 101 100 97 95 88 83 80 76 71 68 69 64 57 50 45 42 36 32 28 24 20 15
342 341 358 359 7 28 41 51 72 89 98 109 114 118 117 115 111 109 106 105 105 102 97 96 93 90 87 82 80 76 72 70 65 60 57 55 47 42 37 32 28 24 20 18
16 21 30 37 49 64 72 77 82 100 109 115 117 112 110 109 109 107 110 107 100 96 88 89 90 89 87 85 79 78 78 74 69 65 59 50 46 41 40 36 31 28 22 16
62 68 72 80 88 86 88 91 97 106 115 119 118 118 115 115 118 118 117 104 95 94 93 91 89 86 83 83 84 80 76 75 75 63 61 52 49 44 41 39 33 25 22 20
89 91 96 95 89 89 96 106 113 111 112 118 119 117 114 111 106 102 104 100 97 100 102 100 94 88 86 83 82 85 84 73 67 61 58 53 49 47 41 35 30 30 25 22
111 110 105 103 104 105 110 115 121 124 124 122 121 121 122 120 124 120 111 104 111 111 109 102 95 94 94 92 90 84 78 72 67 63 59 55 50 46 39 38 35 30 28 25
130 124 120 118 116 118 121 122 123 123 121 117 114 110 107 105 107 113 113 116 119 116 110 102 96 94 95 92 85 78 74 71 66 60 57 55 49 45 41 38 36 32 30 26
149 141 134 131 126 122 122 124 128 135 133 134 135 134 135 136 132 128 124 124 122 119 111 102 100 101 95 87 83 78 73 67 63 60 59 55 49 44 40 38 36 33 30 27
163 152 147 148 145 140 136 134 132 131 127 127 124 120 127 136 142 137 134 132 129 123 119 112 106 97 88 83 80 77 72 67 63 62 59 53 47 43 40 37 35 33 30 27
163 162 160 160 159 154 152 147 148 148 149 147 149 151 150 150 147 146 144 138 136 137 129 116 107 98 92 87 81 76 73 68 65 62 57 51 46 40 37 37 36 33 29 27
171 170 163 160 163 163 163 166 162 161 159 164 160 158 159 158 156 153 151 150 149 146 132 122 121 112 101 92 85 77 71 67 61 60 55 48 42 37 36 36 34 32 29 27